Regional Weather Roundup
Issued by NWS

Home | Current Version | Previous Version | Text Only | Print | Product List | Glossary On
Versions: 1 2 3 4 5 6 7 8 9 10 11 12 13 14 15 16 17 18 19 20 21 22 23 24 25 26 27 28 29 30 31 32 33 34 35 36 37 38 39 40 41 42 43 44 45 46 47 48 49 50
000
ASUS46 KPQR 050510
RWROR

OREGON REGIONAL WEATHER ROUNDUP
NATIONAL WEATHER SERVICE PORTLAND OR
1000 PM PDT MON MAY 04 2015

NOTE: "FAIR" INDICATES FEW OR NO CLOUDS BELOW 12,000 FEET WITH
NO SIGNIFICANT WEATHER AND/OR OBSTRUCTIONS TO VISIBILITY.

ORZ001>013-050600-
NORTHWEST OREGON


CITY           SKY/WX    TMP DP  RH WIND       PRES   REMARKS
ASTORIA        MOCLDY    50  47  89 SW7       30.02R
NEWPORT        PTCLDY    50  45  81 S5        30.11R
PORTLAND       MOCLDY    55  42  61 W10       30.03R
VANCOUVER WA   CLOUDY    54  42  64 W8        30.03R
SCAPPOOSE      CLEAR     48  40  73 CALM      30.02R
HILLSBORO      CLEAR     49  42  77 CALM      30.03S
AURORA         CLOUDY    51  44  77 VRB3      30.05R
MCMINNVILLE    PTCLDY    49  43  80 W8        30.05S
SALEM          MOCLDY    51  43  74 W7        30.05R
CORVALLIS      PTCLDY    48  43  81 CALM      30.07R
EUGENE         PTCLDY    49  42  77 W8        30.07R
$$

ORZ021-028-050600-
SOUTHWEST OREGON


CITY           SKY/WX    TMP DP  RH WIND       PRES   REMARKS
NORTH BEND     CLEAR     52  46  82 CALM      30.11S
BROOKINGS      CLEAR     50  47  89 NW5       30.07R
ROSEBURG       PTCLDY    56  42  59 N6        30.07R
SEXTON SUMMIT  CLEAR     40  36  86 MISG      30.03R
MEDFORD        CLEAR     58  41  53 N7        30.01R
$$

ORZ014>016-041-050600-
COLUMBIA GORGE


CITY           SKY/WX    TMP DP  RH WIND       PRES   REMARKS
TROUTDALE      CLOUDY    56  41  57 W5        30.02R
THE DALLES     PTCLDY    59  40  49 NW13      29.94R
$$

ORZ029>031-041-044-049-050-061>064-502-503-505>511-050600-
EASTERN OREGON


CITY           SKY/WX    TMP DP  RH WIND       PRES   REMARKS
REDMOND        CLEAR     48  34  58 NW9       29.97R
BEND           CLEAR     48  32  53 N5        29.98R
PRINEVILLE     CLEAR     48  34  57 W8        29.98R
KLAMATH FALLS  CLEAR     50  35  56 W9        29.98R
LAKEVIEW       CLOUDY    59  27  29 NW12      29.97R
HERMISTON      CLEAR     57  37  47 SW17G26   29.89R
PENDLETON      PTCLDY    55  33  43 W16G23    29.92R
JOHN DAY       PTCLDY    57  37  46 NW5       29.91R
MEACHAM        PTCLDY    48  28  46 CALM      29.95R
LA GRANDE      PTCLDY    57  25  28 W20G26    29.88R
BAKER CITY     MOCLDY    54  38  54 NW10      29.87R
BURNS          CLEAR     55  30  38 W9        29.89R
ROME             N/A     64  32  30 N7        29.82R
ONTARIO        MOCLDY    72  38  29 NW15G21   29.75R
$$


USA.gov is the U.S. government's official web portal to all federal, state and local government web resources and services.